�������l�o���
Date,Time,MP-1(��Sv/h),MP-2(��Sv/h),MP-3(��Sv/h),MP-4(��Sv/h),MP-5(��Sv/h),MP-6(��Sv/h),MP-7(��Sv/h),MP-8(��Sv/h),����,����(m/s),���J
2021/04/21,00:00,0.636,0.936,0.590,1.157,0.814,0.374,0.654,0.612,��,6.9,��
2021/04/21,00:10,0.634,0.936,0.593,1.155,0.815,0.374,0.655,0.612,��,6.7,��
2021/04/21,00:20,0.634,0.936,0.591,1.154,0.814,0.374,0.654,0.613,���k��,6.3,��
2021/04/21,00:30,0.635,0.939,0.590,1.158,0.814,0.375,0.654,0.613,���k��,6.2,��
2021/04/21,00:40,0.634,0.934,0.591,1.155,0.814,0.375,0.654,0.612,���k��,6.9,��
2021/04/21,00:50,0.637,0.937,0.592,1.158,0.814,0.374,0.655,0.613,���k��,6.0,��
2021/04/21,01:00,0.633,0.937,0.591,1.158,0.813,0.374,0.654,0.613,���k��,7.0,��
2021/04/21,01:10,0.634,0.933,0.592,1.156,0.815,0.375,0.654,0.613,���k��,8.0,��
2021/04/21,01:20,0.634,0.935,0.591,1.156,0.815,0.375,0.653,0.613,���k��,9.3,��
2021/04/21,01:30,0.636,0.936,0.593,1.158,0.814,0.374,0.653,0.614,���k��,9.5,��
2021/04/21,01:40,0.634,0.937,0.591,1.158,0.814,0.374,0.653,0.613,���k��,10.7,��
2021/04/21,01:50,0.633,0.935,0.591,1.156,0.815,0.372,0.653,0.612,���k��,8.8,��
2021/04/21,02:00,0.635,0.936,0.591,1.154,0.814,0.375,0.653,0.612,���k��,8.5,��
2021/04/21,02:10,0.633,0.936,0.591,1.158,0.813,0.374,0.652,0.612,�k��,6.0,��
2021/04/21,02:20,0.636,0.934,0.589,1.157,0.813,0.374,0.652,0.612,�k��,4.8,��
2021/04/21,02:30,0.633,0.936,0.592,1.155,0.815,0.374,0.652,0.613,�k�k��,6.3,��
2021/04/21,02:40,0.633,0.933,0.590,1.158,0.814,0.374,0.652,0.613,�k�k��,6.4,��
2021/04/21,02:50,0.634,0.935,0.590,1.157,0.813,0.372,0.652,0.612,�k�k��,8.1,��
2021/04/21,03:00,0.632,0.932,0.589,1.157,0.812,0.372,0.653,0.612,�k�k��,7.4,��
2021/04/21,03:10,0.632,0.934,0.590,1.154,0.813,0.371,0.654,0.613,�k�k��,8.4,��
2021/04/21,03:20,0.632,0.935,0.588,1.156,0.812,0.373,0.653,0.612,�k,7.6,��
2021/04/21,03:30,0.633,0.935,0.589,1.156,0.815,0.372,0.651,0.611,�k,5.7,��
2021/04/21,03:40,0.631,0.935,0.588,1.157,0.813,0.372,0.653,0.611,�k,5.8,��
2021/04/21,03:50,0.631,0.937,0.588,1.154,0.812,0.372,0.653,0.612,�k�k��,5.2,��
2021/04/21,04:00,0.631,0.936,0.588,1.152,0.814,0.372,0.653,0.611,�k�k��,3.9,��
2021/04/21,04:10,0.633,0.934,0.591,1.156,0.813,0.373,0.652,0.612,�k�k��,3.4,��
2021/04/21,04:20,0.632,0.933,0.588,1.155,0.812,0.372,0.653,0.611,�k�k��,3.5,��
2021/04/21,04:30,0.632,0.933,0.589,1.155,0.814,0.372,0.654,0.611,�k�k��,3.1,��
2021/04/21,04:40,0.632,0.934,0.587,1.155,0.814,0.373,0.652,0.611,�k��,2.6,��
2021/04/21,04:50,0.632,0.934,0.588,1.155,0.812,0.371,0.652,0.611,���k��,3.4,��
2021/04/21,05:00,0.631,0.935,0.589,1.154,0.813,0.373,0.652,0.612,��,4.0,��
2021/04/21,05:10,0.633,0.936,0.589,1.156,0.812,0.372,0.655,0.612,���k��,5.6,��
2021/04/21,05:20,0.631,0.934,0.589,1.155,0.813,0.372,0.652,0.611,���k��,6.9,��
2021/04/21,05:30,0.632,0.934,0.589,1.155,0.815,0.372,0.654,0.610,���k��,5.5,��
2021/04/21,05:40,0.632,0.934,0.589,1.156,0.814,0.374,0.652,0.612,��,4.7,��
2021/04/21,05:50,0.631,0.933,0.589,1.156,0.812,0.373,0.652,0.611,��,5.5,��
2021/04/21,06:00,0.633,0.935,0.590,1.158,0.812,0.373,0.651,0.611,��,5.7,��
2021/04/21,06:10,0.630,0.935,0.589,1.158,0.812,0.372,0.653,0.611,���쐼,5.0,��
2021/04/21,06:20,0.631,0.936,0.589,1.156,0.812,0.374,0.653,0.611,��,4.1,��
2021/04/21,06:30,0.632,0.934,0.590,1.156,0.813,0.373,0.653,0.611,��,4.9,��
2021/04/21,06:40,0.633,0.937,0.589,1.156,0.813,0.371,0.654,0.610,���k��,4.3,��
2021/04/21,06:50,0.631,0.935,0.589,1.153,0.813,0.373,0.655,0.611,���k��,4.0,��
2021/04/21,07:00,0.635,0.936,0.588,1.154,0.814,0.372,0.652,0.611,���k��,3.9,��
2021/04/21,07:10,0.632,0.935,0.592,1.154,0.814,0.371,0.652,0.613,�k��,2.5,��
2021/04/21,07:20,0.633,0.934,0.592,1.157,0.815,0.370,0.654,0.613,���k��,4.5,��
2021/04/21,07:30,0.634,0.933,0.589,1.157,0.815,0.372,0.653,0.613,���k��,4.9,��
2021/04/21,07:40,0.633,0.936,0.590,1.158,0.811,0.372,0.654,0.611,���k��,3.9,��
2021/04/21,07:50,0.632,0.934,0.591,1.156,0.814,0.370,0.655,0.613,���k��,3.7,��
2021/04/21,08:00,0.633,0.934,0.588,1.156,0.814,0.371,0.655,0.614,�k��,1.7,��
2021/04/21,08:10,0.634,0.933,0.589,1.156,0.814,0.371,0.653,0.614,���k��,2.4,��
2021/04/21,08:20,0.633,0.933,0.588,1.157,0.814,0.372,0.655,0.611,��,3.0,��
2021/04/21,08:30,0.635,0.931,0.590,1.157,0.813,0.371,0.653,0.612,��,4.3,��
2021/04/21,08:40,0.634,0.932,0.589,1.158,0.812,0.370,0.653,0.610,���k��,4.5,��
2021/04/21,08:50,0.631,0.932,0.589,1.157,0.813,0.371,0.652,0.611,���k��,4.5,��
2021/04/21,09:00,0.632,0.933,0.589,1.159,0.814,0.371,0.652,0.611,���k��,3.9,��
2021/04/21,09:10,0.633,0.933,0.588,1.157,0.812,0.372,0.653,0.610,���k��,3.9,��
2021/04/21,09:20,0.632,0.935,0.590,1.157,0.812,0.373,0.653,0.610,���쐼,5.1,��
2021/04/21,09:30,0.632,0.934,0.588,1.157,0.815,0.371,0.653,0.610,��,5.1,��
2021/04/21,09:40,0.633,0.934,0.589,1.159,0.815,0.371,0.652,0.610,�k�k��,2.8,��
2021/04/21,09:50,0.633,0.934,0.590,1.157,0.814,0.372,0.654,0.611,��,2.3,��
2021/04/21,10:00,0.633,0.934,0.589,1.160,0.814,0.372,0.653,0.611,���k��,5.5,��
2021/04/21,10:10,0.633,0.934,0.591,1.157,0.814,0.372,0.653,0.611,���k��,5.2,��
2021/04/21,10:20,0.634,0.935,0.589,1.159,0.813,0.371,0.653,0.609,�k��,5.5,��
2021/04/21,10:30,0.633,0.936,0.589,1.158,0.807,0.372,0.652,0.610,�k��,5.4,��
2021/04/21,10:40,0.633,0.937,0.589,1.157,0.814,0.372,0.653,0.610,�k�k��,3.8,��
2021/04/21,10:50,0.633,0.934,0.589,1.158,0.814,0.371,0.654,0.610,�k��,4.2,��
2021/04/21,11:00,0.635,0.936,0.590,1.160,0.814,0.372,0.652,0.611,�k��,4.5,��
2021/04/21,11:10,0.634,0.935,0.590,1.158,0.817,0.371,0.652,0.611,���k��,4.1,��
2021/04/21,11:20,0.634,0.939,0.590,1.160,0.816,0.371,0.652,0.609,���k��,4.1,��
2021/04/21,11:30,0.635,0.938,0.588,1.159,0.816,0.372,0.651,0.611,��,4.4,��
2021/04/21,11:40,0.634,0.938,0.592,1.161,0.817,0.371,0.653,0.611,��,4.4,��
2021/04/21,11:50,0.634,0.939,0.589,1.158,0.817,0.372,0.653,0.611,���쓌,3.6,��
2021/04/21,12:00,0.634,0.939,0.589,1.156,0.818,0.372,0.652,0.611,���쓌,3.9,��
2021/04/21,12:10,0.634,0.939,0.590,1.157,0.817,0.373,0.653,0.612,��,3.1,��
2021/04/21,12:20,0.635,0.940,0.589,1.158,0.814,0.372,0.654,0.611,���쓌,3.4,��
2021/04/21,12:30,0.636,0.940,0.589,1.160,0.817,0.373,0.653,0.611,�쓌,3.5,��
2021/04/21,12:40,0.635,0.938,0.588,1.159,0.817,0.372,0.655,0.611,�쓌,3.5,��
2021/04/21,12:50,0.633,0.935,0.589,1.161,0.818,0.372,0.653,0.611,���쓌,2.2,��
2021/04/21,13:00,0.636,0.940,0.590,1.160,0.818,0.372,0.654,0.610,�쓌,3.0,��
2021/04/21,13:10,0.634,0.939,0.591,1.160,0.818,0.372,0.652,0.611,�쓌,3.0,��
2021/04/21,13:20,0.635,0.938,0.590,1.160,0.817,0.373,0.655,0.612,�쓌,2.6,��
2021/04/21,13:30,0.634,0.939,0.590,1.160,0.818,0.372,0.654,0.611,�쓌,3.9,��
2021/04/21,13:40,0.636,0.938,0.592,1.161,0.819,0.373,0.655,0.611,�쓌,3.6,��
2021/04/21,13:50,0.635,0.939,0.588,1.161,0.820,0.372,0.652,0.610,���쓌,3.5,��
2021/04/21,14:00,0.636,0.940,0.589,1.161,0.819,0.372,0.654,0.611,�쓌,3.4,��
2021/04/21,14:10,0.636,0.941,0.590,1.160,0.818,0.373,0.656,0.611,��쓌,2.2,��
2021/04/21,14:20,0.634,0.942,0.591,1.160,0.819,0.374,0.653,0.611,�쓌,3.9,��
2021/04/21,14:30,0.634,0.940,0.591,1.162,0.819,0.373,0.653,0.612,��쓌,3.7,��
2021/04/21,14:40,0.634,0.939,0.590,1.165,0.819,0.374,0.654,0.611,��쓌,3.3,��
2021/04/21,14:50,0.635,0.942,0.589,1.163,0.819,0.372,0.655,0.611,�쓌,4.5,��
2021/04/21,15:00,0.635,0.941,0.591,1.160,0.819,0.373,0.654,0.611,��쓌,4.5,��
2021/04/21,15:10,0.635,0.940,0.590,1.161,0.820,0.373,0.654,0.612,�쓌,3.9,��
2021/04/21,15:20,0.636,0.940,0.589,1.161,0.818,0.372,0.653,0.611,�쓌,5.4,��
2021/04/21,15:30,0.635,0.944,0.590,1.159,0.822,0.373,0.655,0.611,�쓌,4.7,��
2021/04/21,15:40,0.636,0.944,0.593,1.156,0.820,0.372,0.654,0.610,�쓌,4.8,��
2021/04/21,15:50,0.636,0.944,0.591,1.158,0.817,0.372,0.655,0.611,�쓌,4.2,��
2021/04/21,16:00,0.635,0.942,0.592,1.160,0.818,0.373,0.656,0.611,��쓌,4.3,��
2021/04/21,16:10,0.636,0.946,0.590,1.159,0.817,0.372,0.655,0.610,��쓌,4.6,��
2021/04/21,16:20,0.635,0.943,0.592,1.160,0.819,0.374,0.655,0.612,��쓌,4.8,��
2021/04/21,16:30,0.636,0.942,0.590,1.160,0.819,0.375,0.655,0.610,��쓌,4.0,��
2021/04/21,16:40,0.636,0.943,0.592,1.160,0.820,0.374,0.654,0.610,��쓌,3.3,��
2021/04/21,16:50,0.636,0.946,0.591,1.158,0.820,0.376,0.655,0.611,��쓌,3.2,��
2021/04/21,17:00,0.635,0.947,0.592,1.160,0.821,0.375,0.654,0.612,��,3.5,��
2021/04/21,17:10,0.636,0.946,0.592,1.159,0.820,0.376,0.653,0.611,��,2.2,��
2021/04/21,17:20,0.635,0.947,0.589,1.159,0.819,0.374,0.654,0.614,��쓌,1.9,��
2021/04/21,17:30,0.636,0.945,0.592,1.157,0.820,0.375,0.656,0.615,���쓌,2.0,��
2021/04/21,17:40,0.633,0.943,0.591,1.158,0.819,0.376,0.654,0.613,���쓌,2.0,��
2021/04/21,17:50,0.637,0.946,0.591,1.158,0.818,0.375,0.655,0.615,���쓌,2.8,��
2021/04/21,18:00,0.637,0.945,0.591,1.159,0.821,0.375,0.652,0.613,�쓌,3.3,��
2021/04/21,18:10,0.637,0.943,0.591,1.159,0.820,0.376,0.655,0.616,��,2.5,��
2021/04/21,18:20,0.637,0.945,0.591,1.160,0.821,0.374,0.654,0.613,�k�k��,2.0,��
2021/04/21,18:30,0.638,0.944,0.590,1.160,0.821,0.374,0.656,0.612,�k,2.0,��
2021/04/21,18:40,0.638,0.946,0.591,1.164,0.821,0.374,0.653,0.613,�k��,3.0,��
2021/04/21,18:50,0.638,0.946,0.594,1.164,0.822,0.374,0.655,0.613,�k��,4.6,��
2021/04/21,19:00,0.636,0.945,0.592,1.161,0.822,0.375,0.655,0.613,���k��,4.4,��
2021/04/21,19:10,0.636,0.945,0.592,1.163,0.822,0.374,0.655,0.614,���k��,3.1,��
2021/04/21,19:20,0.638,0.947,0.592,1.162,0.821,0.374,0.656,0.612,��,3.7,��
2021/04/21,19:30,0.638,0.948,0.591,1.163,0.821,0.374,0.657,0.614,���k��,3.1,��
2021/04/21,19:40,0.637,0.948,0.593,1.163,0.821,0.374,0.656,0.613,���k��,4.0,��
2021/04/21,19:50,0.636,0.946,0.594,1.163,0.820,0.375,0.657,0.611,���k��,5.9,��
2021/04/21,20:00,0.638,0.947,0.593,1.162,0.822,0.374,0.655,0.612,���k��,5.9,��
2021/04/21,20:10,0.637,0.944,0.592,1.164,0.820,0.373,0.657,0.613,���k��,5.6,��
2021/04/21,20:20,0.638,0.946,0.593,1.163,0.821,0.374,0.656,0.613,���k��,6.6,��
2021/04/21,20:30,0.633,0.944,0.593,1.163,0.821,0.373,0.658,0.612,���k��,6.7,��
2021/04/21,20:40,0.638,0.946,0.593,1.164,0.820,0.373,0.657,0.614,���k��,6.5,��
2021/04/21,20:50,0.636,0.944,0.594,1.164,0.823,0.374,0.656,0.612,���k��,5.6,��
2021/04/21,21:00,0.637,0.945,0.593,1.162,0.821,0.373,0.656,0.612,���k��,5.2,��
2021/04/21,21:10,0.638,0.947,0.594,1.164,0.819,0.373,0.657,0.612,�k��,5.9,��
2021/04/21,21:20,0.637,0.946,0.593,1.162,0.821,0.375,0.656,0.613,�k��,6.4,��
2021/04/21,21:30,0.637,0.945,0.590,1.163,0.821,0.374,0.655,0.612,�k��,6.2,��
2021/04/21,21:40,0.637,0.946,0.592,1.163,0.820,0.373,0.655,0.611,���k��,5.3,��
2021/04/21,21:50,0.637,0.947,0.593,1.162,0.820,0.373,0.654,0.614,���k��,4.9,��
2021/04/21,22:00,0.636,0.946,0.594,1.165,0.821,0.373,0.657,0.613,���k��,6.4,��
2021/04/21,22:10,0.637,0.946,0.591,1.165,0.820,0.373,0.656,0.613,���k��,8.2,��
2021/04/21,22:20,0.637,0.946,0.592,1.163,0.819,0.373,0.655,0.613,���k��,8.3,��
2021/04/21,22:30,0.636,0.946,0.594,1.162,0.821,0.374,0.654,0.612,�k�k��,3.1,��
2021/04/21,22:40,0.635,0.946,0.594,1.164,0.821,0.374,0.654,0.613,�k��,4.7,��
2021/04/21,22:50,0.637,0.946,0.592,1.164,0.821,0.374,0.655,0.614,�k�k��,5.1,��
2021/04/21,23:00,0.634,0.943,0.594,1.163,0.820,0.373,0.656,0.614,�k�k��,4.6,��
2021/04/21,23:10,0.636,0.944,0.591,1.165,0.821,0.373,0.655,0.612,�k�k��,4.3,��
2021/04/21,23:20,0.636,0.944,0.593,1.164,0.820,0.374,0.655,0.612,�k�k��,3.9,��
2021/04/21,23:30,0.635,0.946,0.594,1.162,0.820,0.374,0.655,0.613,�k�k��,4.2,��
2021/04/21,23:40,0.636,0.945,0.591,1.164,0.820,0.374,0.656,0.613,���k��,3.7,��
2021/04/21,23:50,0.637,0.945,0.592,1.166,0.820,0.373,0.655,0.612,�k��,5.3,��
